Retour au catalogue

COSMOS 1275 DEB

ActifPO
NORAD 20087·DEBRIS·🇷🇺 Russia

Lancé Jun 4, 1981 depuis Plesetsk Cosmodrome

Loading…

Prochains Passages (prochaines 24 heures)

TLE

FraisSource: Space-Track

Époque: Sep 14, 2026, 11:22 UTC

1 20087U 81053MJ  26257.47361138  .00000907  00000-0  81192-3 0  9999
2 20087  82.9863  69.9387 0102801 224.3559 164.2931 13.81030308866844

Suivez COSMOS 1275 DEB en temps réel avec AllMySat

Download on the App Store